Vorticity
nan nan nan nan nan nan nan nan nan nan nan nan nan nan nan nan nan nan nan nan nan nan nan nan nan nan nan nan nan nan nan nan nan nan nan nan nan nan nan nan nan nan nan nan nan nan nan nan nan nan nan nan nan nan nan nan nan nan nan nan nan nan nan nan nan nan nan nan nan nan nan nan nan nan nan nan nan nan nan nan nan nan nan nan nan nan
nan 8 9 9 7 5 5 6 9 10 8 6 6 6 5 7 9 11 15 15 16 15 15 13 11 9 8 9 6 4 4 4 5 7 9 10 11 11 11 11 11 11 10 10 10 10 10 11 12 12 12 13 13 12 12 12 12 11 11 11 12 12 12 12 12 12 11 11 13 14 15 15 15 14 13 14 14 14 14 14 14 12 10 9 8 nan
nan 10 8 9 8 7 6 8 12 12 10 8 7 6 5 9 12 13 14 16 17 16 13 10 8 8 9 9 8 8 7 7 8 9 10 11 11 11 11 11 10 10 10 10 10 10 11 12 13 13 13 13 12 12 11 11 11 11 11 11 11 12 12 12 12 12 11 13 14 15 15 13 12 10 9 10 9 8 9 9 10 10 9 8 8 nan
nan 9 8 11 11 10 9 9 11 12 12 11 10 9 12 15 16 15 13 13 13 11 9 8 7 8 11 12 12 11 7 8 8 9 10 10 10 10 10 11 10 10 10 11 12 12 13 13 13 13 12 12 11 11 10 10 10 10 10 11 12 12 12 12 12 13 13 13 14 13 10 8 6 5 5 5 5 5 5 6 6 7 8 8 9 nan
nan 8 9 10 11 11 12 11 12 12 12 13 13 14 17 18 16 13 11 10 8 8 9 10 10 10 10 9 7 6 6 7 8 9 10 10 10 10 11 12 11 11 12 12 13 13 13 12 12 11 11 10 10 10 10 10 10 11 12 13 14 15 15 14 13 13 12 12 10 9 7 5 3 2 3 4 5 6 6 7 7 8 9 9 10 nan
nan 9 10 10 10 10 11 12 12 13 14 15 15 16 17 16 13 10 8 8 8 9 10 10 11 11 9 5 3 4 8 10 11 12 13 13 12 13 13 13 13 13 13 13 13 12 12 12 11 11 11 11 10 11 11 12 13 14 15 16 16 15 14 12 11 9 8 8 7 6 6 5 5 4 6 8 9 9 10 10 10 10 10 11 11 nan
nan 9 9 9 8 9 9 11 12 13 15 15 15 14 13 12 9 8 7 8 10 11 10 10 10 11 10 6 6 10 16 18 20 21 20 20 19 18 17 15 14 13 12 12 12 11 12 12 12 12 12 12 12 12 13 13 14 14 14 13 12 11 9 8 7 6 6 7 7 7 7 8 8 8 10 12 13 13 13 13 13 13 12 12 12 nan
nan 8 7 7 7 9 10 12 13 14 14 12 10 10 10 10 9 9 9 9 10 10 9 9 9 10 9 9 11 16 18 20 23 24 24 26 25 23 19 17 15 13 12 12 12 12 12 12 12 12 12 12 12 12 12 12 11 10 9 8 8 7 7 7 7 7 8 9 10 10 11 11 12 12 13 14 15 15 15 15 15 15 14 14 14 nan
nan 7 8 9 10 12 14 15 14 13 12 9 8 8 9 9 8 9 9 9 9 8 8 8 9 9 9 11 13 15 14 15 13 10 12 15 14 12 12 14 15 15 13 12 12 12 12 12 12 12 11 11 10 10 9 9 8 7 6 7 8 9 9 10 11 11 12 13 14 14 14 14 14 14 14 15 15 15 15 15 15 15 15 15 14 nan
nan 9 11 14 16 17 15 13 12 11 10 9 9 9 8 7 6 6 6 8 8 8 8 8 9 10 11 13 14 13 14 14 11 7 6 3 0 1 7 11 13 13 11 12 12 12 12 12 11 11 10 9 8 9 9 8 8 8 8 9 10 11 12 13 13 14 14 14 15 15 15 14 14 14 13 13 13 13 14 14 14 14 14 14 13 nan
nan 15 17 18 18 16 13 10 10 9 9 9 9 8 5 4 6 6 6 9 8 8 8 9 11 10 11 13 13 14 16 17 18 17 16 13 13 16 18 19 17 15 17 17 17 16 14 12 11 10 11 10 10 10 10 11 11 10 10 10 11 12 12 13 13 14 14 14 14 14 13 13 12 12 12 12 12 12 12 12 12 12 12 12 12 nan
nan 18 19 16 13 10 9 8 8 7 6 6 5 4 5 8 9 9 10 9 9 9 10 12 11 10 11 12 14 15 15 14 14 16 19 22 25 27 29 28 26 25 26 26 26 24 19 15 14 13 13 13 13 12 11 11 10 10 10 10 10 11 11 12 12 12 12 12 12 12 11 11 11 10 11 11 11 11 11 11 11 11 11 10 10 nan
nan 16 13 9 7 6 5 5 5 4 4 5 5 7 10 11 11 11 10 8 9 10 11 11 11 12 15 15 14 14 13 12 11 12 14 16 18 21 22 20 20 21 23 24 25 22 19 20 22 22 18 16 14 13 14 12 10 9 9 10 10 10 11 11 11 11 11 11 10 10 10 10 10 10 10 10 10 10 11 11 10 10 10 10 10 nan
nan 10 5 3 3 4 4 4 4 5 7 9 10 12 12 10 8 8 8 9 11 11 11 10 11 13 17 16 14 11 10 11 12 12 10 10 11 12 11 11 11 11 13 14 14 13 15 21 26 27 25 22 19 18 15 11 9 9 9 10 10 10 10 10 10 10 10 10 9 9 9 9 10 10 11 11 12 12 12 12 11 11 11 10 10 nan
nan 3 2 3 4 6 6 8 9 9 10 11 11 11 9 8 8 8 8 9 12 13 13 13 14 15 14 12 11 9 9 11 11 10 8 8 9 9 7 9 9 9 9 9 9 11 16 21 22 22 24 19 14 9 4 4 6 7 8 9 10 10 10 9 10 10 10 9 10 10 10 10 11 11 11 12 12 13 13 13 12 12 11 10 10 nan
nan 3 5 7 8 9 10 11 11 11 12 12 11 9 7 8 9 10 10 12 14 16 15 15 15 16 13 10 9 9 11 12 10 7 7 9 9 8 8 9 9 9 9 9 10 12 17 18 17 15 14 9 3 -1 -0 2 4 7 8 9 9 10 10 10 10 10 10 10 11 10 10 10 10 10 11 11 11 11 12 12 12 12 11 10 9 nan
nan 7 9 10 10 10 11 11 11 11 11 10 9 8 7 8 9 11 13 15 15 14 12 10 11 12 11 10 11 11 12 11 9 7 8 8 8 8 10 9 9 10 9 10 11 12 14 14 13 11 6 -1 -2 0 3 5 6 8 9 9 10 10 11 11 11 11 11 11 11 10 10 9 9 9 9 9 10 10 11 11 11 11 11 10 10 nan
nan 9 10 11 12 11 11 13 12 10 9 8 8 9 10 10 11 13 15 14 11 8 6 7 8 7 6 7 8 8 10 10 8 6 8 9 9 10 11 11 11 10 10 11 12 12 12 11 7 1 -8 -9 -3 2 5 7 9 10 10 11 12 12 12 12 12 12 11 11 10 10 9 9 9 9 9 10 10 11 11 11 11 11 11 10 10 nan
nan 10 11 11 12 10 10 9 7 6 6 8 9 11 12 14 14 14 12 9 6 4 5 6 7 7 7 5 4 4 8 9 8 8 9 10 10 10 12 13 12 12 12 12 12 13 13 11 7 1 -6 0 5 7 9 11 12 12 12 12 12 11 11 11 11 11 10 10 10 10 10 10 11 11 11 11 11 12 12 12 12 11 11 11 11 nan
nan 10 11 11 11 10 9 8 5 4 4 7 10 12 13 13 12 10 8 6 6 6 8 9 9 9 10 7 5 5 7 9 11 12 13 13 12 12 13 14 14 14 12 12 13 13 12 11 13 14 14 12 11 11 11 11 11 11 10 10 10 10 9 9 10 10 10 10 10 11 11 11 12 12 12 12 12 12 12 12 12 12 12 12 12 nan
nan 11 10 9 9 9 8 7 5 4 6 10 13 14 12 9 7 6 7 8 9 10 10 10 9 9 8 7 6 6 8 13 14 16 17 14 12 11 13 14 14 12 10 11 12 12 11 11 12 14 13 8 8 9 8 8 8 9 9 8 8 9 10 9 10 10 11 11 11 11 12 12 12 12 12 12 12 12 12 12 12 12 12 12 12 nan
nan 10 8 8 7 6 7 8 9 11 14 15 14 11 9 7 7 8 10 12 12 11 10 10 9 8 7 8 8 9 12 16 15 15 13 9 8 9 12 12 12 11 11 12 11 11 10 9 8 6 3 2 4 5 6 7 7 9 10 10 10 10 10 11 11 11 11 11 11 11 11 12 11 11 12 12 12 12 12 12 11 11 11 11 11 nan
nan 8 9 11 11 11 13 13 14 15 15 12 9 8 7 7 8 10 11 11 11 11 11 11 10 10 10 10 10 12 15 15 15 14 9 8 8 10 11 11 10 9 9 9 8 8 9 9 8 7 9 8 8 9 10 11 10 10 10 11 11 11 12 12 12 12 12 12 12 12 12 12 12 12 12 12 12 12 12 12 12 12 12 12 12 nan
nan 10 13 14 12 10 7 5 4 4 5 7 8 9 7 6 6 7 8 8 10 11 11 10 10 11 11 10 12 14 15 14 14 13 10 10 9 9 8 9 9 9 9 8 8 9 11 11 11 12 14 15 14 11 11 11 11 11 11 12 12 12 13 13 13 13 13 13 13 12 12 13 12 12 12 12 12 13 12 12 12 12 12 12 13 nan
nan 9 8 2 -4 -8 -11 -11 -10 -7 -3 3 7 9 8 7 9 11 12 12 13 12 10 9 9 10 10 12 15 15 14 13 13 12 10 10 9 8 8 10 10 10 10 10 10 11 11 11 11 12 12 15 15 14 13 12 12 11 12 12 13 13 13 14 13 13 13 13 13 12 12 12 12 12 12 12 12 12 12 12 12 12 12 12 13 nan
nan -2 -8 -13 -14 -13 -9 -5 -4 -4 -1 4 5 5 7 11 14 15 15 14 13 11 9 10 10 10 11 13 13 13 11 12 13 12 10 8 8 10 11 11 11 10 10 10 10 10 8 9 10 11 12 16 18 19 16 15 14 13 13 13 13 13 12 12 12 12 11 11 11 12 11 11 12 12 12 12 12 12 12 12 12 12 12 14 18 nan
nan -2 -4 -2 1 5 9 10 8 7 9 8 4 3 8 14 15 14 13 11 10 9 10 10 10 11 13 11 10 9 8 12 13 12 11 9 10 11 10 9 9 9 11 12 10 8 8 11 12 13 14 16 19 22 20 17 16 15 14 12 12 11 10 10 10 11 11 11 11 12 12 12 13 13 13 13 13 13 13 12 12 13 16 22 31 nan
nan 8 9 11 13 13 14 15 15 15 14 10 8 13 20 21 16 14 12 10 9 10 9 9 10 12 11 9 9 8 9 12 12 12 12 11 11 9 7 8 9 11 14 14 12 12 15 16 16 17 16 14 15 18 21 18 18 18 17 13 11 11 12 11 11 12 13 13 13 13 14 14 14 14 14 14 14 13 13 12 13 18 27 33 34 nan
nan 13 16 17 17 18 20 22 20 18 15 14 17 23 28 23 16 12 10 9 10 10 9 9 10 10 9 8 10 10 13 13 12 10 11 11 10 8 7 8 10 12 15 15 16 18 19 18 17 16 13 10 12 14 17 19 22 23 23 20 19 18 16 14 14 14 14 14 14 14 14 14 14 14 14 13 13 13 12 11 16 24 35 33 26 nan
nan 18 21 21 23 24 26 26 22 19 17 18 21 26 27 22 16 12 10 10 11 10 10 9 10 10 9 11 13 15 16 12 9 8 10 13 11 8 7 9 10 11 13 15 16 17 15 15 13 11 8 9 11 11 11 15 19 22 23 24 26 24 18 16 15 15 16 15 15 14 14 13 13 13 13 12 12 12 11 11 16 23 28 23 18 nan
nan 16 18 19 21 22 22 21 19 19 20 22 25 27 23 18 14 12 11 11 11 11 10 10 10 10 10 12 13 14 12 7 4 5 11 14 11 8 8 11 10 11 12 11 11 10 12 13 11 9 8 10 11 10 9 10 13 15 15 19 21 20 16 16 17 18 20 18 16 15 14 14 13 13 13 12 12 12 12 13 16 17 17 15 13 nan
nan 13 13 14 15 16 16 16 16 17 18 20 21 19 16 14 12 11 12 11 11 10 10 9 10 10 11 9 8 8 6 2 0 3 10 14 12 9 9 10 9 10 10 9 8 7 8 8 8 8 9 11 12 12 10 11 12 11 11 13 14 13 14 18 21 23 23 21 20 19 18 16 15 15 14 14 14 14 14 15 15 12 8 11 12 nan
nan 12 11 12 13 13 13 13 12 12 12 13 13 13 13 13 12 12 12 11 11 10 10 10 10 10 11 10 9 7 4 0 -1 2 11 16 13 10 7 8 9 9 10 11 11 10 7 3 3 6 10 12 12 11 12 12 12 12 13 12 12 11 15 20 22 23 20 21 24 24 24 24 23 21 20 19 18 18 18 18 16 9 -1 4 9 nan
nan 11 12 13 13 12 11 10 10 10 10 10 10 11 12 12 12 12 12 11 11 10 10 9 9 10 10 12 11 9 5 2 0 3 12 16 13 8 6 9 10 10 11 12 12 12 10 4 3 5 9 10 11 11 12 13 13 14 15 12 11 10 14 16 17 17 16 18 21 23 26 29 29 28 27 25 22 20 19 19 16 11 -0 -6 -3 nan
nan 12 13 13 12 11 10 10 10 11 11 11 11 11 11 11 11 11 11 11 10 10 9 9 9 9 9 9 8 8 6 4 2 6 12 15 12 8 9 10 10 10 11 10 10 11 9 6 5 6 6 8 11 12 12 12 13 14 12 10 9 9 11 12 12 12 14 15 16 17 19 21 24 25 25 20 17 15 14 15 16 14 9 -2 -8 nan
nan 12 12 11 11 10 9 10 11 11 12 12 11 10 10 10 10 10 10 10 10 9 9 9 9 8 7 7 6 6 5 4 3 6 10 12 10 9 10 9 8 8 10 9 9 8 7 7 8 8 9 11 12 13 12 11 11 11 10 11 11 12 11 11 11 12 13 12 12 12 12 13 14 15 15 12 12 13 15 15 17 18 17 11 3 nan
nan 11 11 11 10 10 11 12 12 12 12 11 10 9 9 9 9 9 10 10 10 10 10 11 12 10 4 3 3 2 2 0 1 4 7 10 10 10 8 7 7 8 10 9 9 8 7 8 9 12 14 13 10 7 5 7 10 11 11 11 12 13 13 14 14 13 12 10 9 8 8 9 10 11 11 15 21 26 29 31 30 28 25 25 20 nan
nan 10 10 10 10 11 12 11 11 10 10 10 9 8 9 9 9 9 11 11 11 11 11 12 13 12 9 7 5 2 1 1 2 5 9 11 11 10 8 7 8 10 10 9 8 8 8 8 9 12 13 11 7 4 5 7 9 10 11 12 12 13 14 15 15 13 11 10 8 8 9 11 12 12 13 21 26 29 32 35 34 33 34 38 37 nan
nan 10 9 9 10 11 11 10 10 10 10 9 8 8 10 10 12 13 13 12 12 12 11 11 11 13 17 17 14 12 10 12 13 13 16 15 13 11 8 8 9 10 11 11 11 10 9 8 8 8 8 8 8 10 11 9 8 8 9 13 16 17 13 11 11 11 10 10 10 12 15 16 14 13 13 16 17 18 19 21 23 26 29 33 39 nan
nan 10 9 10 11 10 9 9 9 10 9 9 10 12 13 14 15 15 14 13 13 13 14 14 14 14 16 18 18 18 18 17 16 16 19 16 12 9 9 9 10 11 12 13 12 11 10 8 7 7 8 7 7 7 8 7 5 3 6 12 13 10 8 9 10 12 13 13 13 13 14 13 11 11 12 12 12 12 12 12 14 16 19 19 23 nan
nan 11 11 11 11 11 10 10 10 9 9 11 13 14 13 13 13 13 12 12 13 14 15 16 16 15 14 16 16 17 18 17 16 16 15 12 10 8 9 10 10 11 12 12 11 10 9 7 7 9 10 9 8 9 8 6 4 4 11 13 8 3 5 10 15 17 15 13 12 10 8 9 11 13 13 12 12 12 11 9 8 9 13 14 14 nan
nan 12 11 11 10 10 9 9 9 11 13 13 13 12 11 11 11 10 10 11 11 11 12 13 13 12 14 15 16 18 19 19 18 16 13 14 13 11 10 10 10 10 11 11 10 9 8 9 10 11 11 10 11 11 9 8 9 12 14 10 8 10 17 20 20 15 11 10 10 10 12 14 15 15 14 14 13 13 12 10 9 7 9 12 12 nan
nan 12 11 10 10 9 9 11 13 14 14 13 11 11 11 10 9 8 9 10 9 9 10 12 12 12 12 12 13 15 18 18 16 15 15 15 14 14 12 11 10 9 9 10 10 10 11 12 13 12 11 11 10 9 8 9 11 13 12 9 10 15 17 13 10 8 9 10 11 13 15 14 13 13 13 13 13 13 15 16 17 17 13 12 13 nan
nan 11 10 11 11 11 12 13 13 12 11 10 10 11 10 9 8 10 12 11 9 10 12 13 13 14 12 10 10 11 14 16 17 18 17 14 11 10 12 13 12 11 10 10 10 10 12 14 13 12 12 12 11 10 9 9 9 10 9 10 11 11 5 1 2 6 11 14 13 13 11 11 12 13 13 14 14 15 16 18 19 19 17 14 13 nan
nan 10 10 11 11 10 10 10 10 10 10 10 10 10 10 10 11 13 12 10 10 11 12 12 13 13 11 9 10 12 13 14 15 18 17 14 12 14 16 15 14 14 13 12 10 8 9 10 11 11 13 12 11 10 9 9 9 9 9 10 13 14 9 5 7 9 11 11 11 11 10 11 13 14 15 14 14 14 14 13 13 13 15 15 14 nan
nan 9 10 11 10 9 9 10 11 11 10 10 11 11 11 12 12 11 10 11 11 12 12 12 11 9 6 8 10 11 11 11 11 13 14 15 17 18 16 14 12 12 13 12 11 9 8 7 7 9 11 12 13 13 11 10 10 10 9 10 13 14 14 13 12 11 11 10 10 9 10 14 16 15 12 11 12 14 15 14 13 12 13 13 14 nan
nan 9 10 11 10 10 10 11 11 10 10 10 11 11 11 11 11 10 11 12 12 12 12 12 11 8 7 8 9 9 8 8 10 10 10 11 13 13 13 13 13 13 13 12 12 11 11 10 9 8 8 10 11 13 13 13 11 9 8 10 11 12 12 12 12 11 12 11 8 7 11 18 18 15 12 12 13 14 15 16 16 15 14 14 14 nan
nan 11 11 10 10 10 10 10 10 9 9 10 11 11 10 8 8 10 13 12 13 12 12 11 10 9 10 10 10 9 8 9 10 10 10 11 11 11 12 13 14 15 15 15 16 17 18 17 14 11 9 8 8 8 9 10 10 9 9 10 11 11 10 10 10 11 11 10 8 9 15 17 15 13 13 13 12 11 11 14 16 16 16 14 14 nan
nan 11 10 10 10 10 10 9 9 9 9 9 10 11 9 8 10 15 16 13 13 12 11 10 10 10 11 11 11 9 10 12 12 11 11 11 11 11 10 11 12 14 16 18 21 22 23 25 25 20 14 9 6 5 7 8 8 9 10 11 11 11 11 10 9 10 10 10 11 14 18 17 14 13 13 12 10 8 10 14 14 15 15 15 14 nan
nan 11 10 11 10 10 9 9 9 9 9 9 10 10 10 12 14 15 14 13 12 11 10 10 10 10 10 10 10 10 12 13 12 11 11 11 10 9 9 9 10 12 14 16 17 18 21 26 30 30 22 13 8 5 6 7 8 9 11 11 11 11 11 10 9 9 9 11 14 16 18 17 15 15 14 11 10 10 13 13 13 13 14 14 14 nan
nan nan nan nan nan nan nan nan nan nan nan nan nan nan nan nan nan nan nan nan nan nan nan nan nan nan nan nan nan nan nan nan nan nan nan nan nan nan nan nan nan nan nan nan nan nan nan nan nan nan nan nan nan nan nan nan nan nan nan nan nan nan nan nan nan nan nan nan nan nan nan nan nan nan nan nan nan nan nan nan nan nan nan nan nan nan
CAPE
nan nan nan nan nan nan nan nan nan nan nan nan nan nan nan nan nan nan nan nan nan nan nan nan nan nan 12 136 203 203 239 253 260 260 247 234 220 220 209 202 202 197 200 199 199 197 191 188 188 182 185 191 198 198 204 206 206 216 222 229 229 240 260 269 269 279 318 348 368 368 391 401 388 388 367 353 354 354 354 352 352 382 393 406 406 364
nan nan nan nan nan nan nan nan nan nan nan nan nan nan nan nan nan nan nan nan nan nan nan nan nan 7 7 94 200 200 219 217 214 214 209 199 187 187 192 194 194 195 194 188 188 180 178 167 167 168 175 180 189 189 183 189 189 195 202 215 215 229 246 255 255 270 287 308 355 355 383 377 356 356 344 324 325 325 340 351 351 365 389 398 398 391
nan nan nan nan nan nan nan nan nan nan nan nan nan nan nan nan nan nan nan nan nan nan 2 19 19 28 3 19 144 144 156 167 174 174 178 180 177 177 183 180 180 181 181 175 175 168 162 163 163 165 173 176 180 180 179 187 187 186 200 213 213 220 224 236 236 243 249 283 321 321 333 328 299 299 276 277 307 307 346 376 376 375 387 358 358 340
nan nan 0 0 0 0 nan nan nan nan nan nan nan nan nan nan nan nan nan nan nan 10 17 7 7 nan nan nan 46 46 113 138 159 159 165 169 170 170 172 172 172 168 169 159 159 158 157 163 163 166 171 175 181 181 189 192 192 194 203 205 205 212 211 210 210 215 222 270 300 300 306 283 263 263 221 242 277 277 320 349 349 361 347 326 326 319
1 1 1 nan nan nan nan nan nan nan nan nan nan nan nan nan nan nan 0 7 7 6 nan nan nan nan nan nan 12 12 101 140 151 151 159 162 162 162 158 154 154 150 151 152 152 152 155 164 164 168 173 178 186 186 192 197 197 201 207 212 212 210 196 211 211 238 262 264 272 272 256 212 182 182 170 182 215 215 246 277 277 293 274 284 284 293
2 4 1 nan nan nan nan nan nan nan nan nan nan nan nan nan 3 3 14 2 2 nan nan nan nan nan nan nan 16 16 95 125 132 132 136 132 128 128 129 131 131 135 137 142 142 151 155 159 159 168 182 186 195 195 202 210 210 219 217 227 227 242 254 246 246 258 262 238 217 217 188 161 148 148 149 159 169 169 187 219 219 226 216 231 231 259
7 6 1 nan nan nan nan nan nan nan nan nan nan nan 0 3 1 1 nan nan nan nan nan nan nan nan nan nan 34 34 76 83 92 92 91 93 105 105 115 125 125 130 140 149 149 158 167 175 175 184 193 206 208 208 210 218 218 242 256 261 261 265 247 223 223 225 206 191 174 174 154 131 126 126 127 135 149 149 169 182 182 193 190 207 207 237
3 nan nan nan nan nan nan nan 2 2 1 1 1 1 nan nan nan nan nan nan nan nan nan nan nan nan nan nan nan nan nan nan nan nan 5 21 69 69 94 125 125 142 153 160 160 165 175 178 178 184 193 205 225 225 239 227 227 218 194 165 165 140 140 132 132 131 129 125 123 123 119 113 113 113 123 139 154 154 171 181 181 198 220 245 245 292
nan nan nan nan nan nan nan nan 1 1 nan nan nan nan nan nan nan nan nan nan nan nan nan nan nan nan nan nan nan nan nan 3 0 0 3 1 4 4 59 102 102 124 142 141 141 151 154 167 167 176 191 202 212 212 207 173 173 142 125 106 106 108 105 105 105 110 111 109 111 111 118 119 131 131 136 150 166 166 175 188 188 203 239 285 285 349
nan nan nan nan nan nan nan nan nan nan nan nan nan nan nan nan nan nan nan nan nan nan nan nan nan nan nan nan nan nan nan 8 72 72 108 63 102 102 73 61 61 61 113 124 124 137 138 144 144 163 164 164 157 157 143 117 117 104 96 93 93 94 94 98 98 105 111 117 121 121 125 135 143 143 147 162 172 172 188 196 196 213 238 299 299 354
nan nan nan nan nan nan nan nan nan nan nan nan nan nan nan nan nan nan nan nan nan nan nan nan nan nan nan nan nan nan nan nan nan nan 24 39 56 56 62 62 62 75 97 105 105 111 110 117 117 123 114 106 97 97 89 75 75 82 84 87 87 88 88 97 97 102 113 120 129 129 141 149 159 159 165 174 188 188 192 194 194 207 223 270 270 321
nan nan 0 0 0 nan nan nan nan nan nan nan nan nan nan nan nan nan nan nan nan nan nan nan nan nan nan nan nan nan nan nan nan nan nan nan nan nan 1 3 3 24 45 70 70 75 81 78 78 74 63 54 68 68 64 57 57 74 76 79 79 82 86 95 95 102 116 127 136 136 150 165 169 169 179 176 179 179 182 184 184 190 208 230 230 275
nan 1 0 nan nan nan nan nan nan nan nan nan nan nan nan nan nan nan nan nan nan nan nan nan nan nan nan nan nan nan nan nan nan nan nan nan nan nan nan nan nan nan nan nan nan nan 20 44 44 50 50 45 57 57 65 56 56 63 68 72 72 77 90 98 98 110 125 140 152 152 164 174 172 172 174 174 165 165 169 169 169 187 214 235 235 286
2 0 nan nan nan nan nan nan nan nan nan nan nan nan nan nan nan nan nan nan nan nan nan nan nan nan nan nan nan nan nan nan nan nan nan nan nan nan nan nan nan nan nan nan nan nan 1 12 12 4 35 36 42 42 43 51 51 60 64 71 71 81 95 104 104 125 135 155 163 163 174 173 174 174 183 203 203 203 204 214 214 221 242 241 241 276
nan nan nan nan nan nan nan nan nan nan nan nan nan nan nan nan nan nan nan nan nan nan nan nan nan nan nan nan nan nan nan nan nan nan nan nan nan nan nan nan nan nan nan nan nan nan 2 2 2 nan nan 3 11 11 29 41 41 68 73 81 81 92 100 114 114 128 147 159 176 176 183 195 211 211 231 246 243 243 249 244 244 226 230 202 202 215
nan nan nan nan nan nan nan nan nan nan nan nan nan nan nan nan nan nan nan nan nan nan nan nan nan nan nan nan nan nan nan nan nan nan nan nan nan nan nan nan nan nan nan nan nan nan nan nan nan nan nan 9 47 47 56 58 58 76 83 93 93 99 113 121 121 136 150 170 185 185 197 216 234 234 241 244 235 235 238 225 225 203 185 169 169 152
nan nan nan nan nan nan nan nan nan nan nan nan nan nan nan nan nan nan nan nan nan nan nan 1 1 nan nan nan nan nan nan nan nan nan nan nan nan nan nan nan nan nan nan nan nan nan nan nan nan nan nan 22 53 53 60 69 69 83 91 102 102 108 114 132 132 142 162 177 198 198 211 225 228 228 228 221 212 212 194 186 186 172 166 154 154 136
nan nan nan nan nan nan nan nan nan nan nan nan nan nan nan nan nan nan nan nan nan 0 2 nan nan nan nan nan nan nan nan nan nan nan nan nan nan nan nan nan nan nan nan nan nan nan nan nan nan nan nan 52 64 64 71 82 82 90 98 108 108 118 126 134 134 154 170 191 201 201 208 211 207 207 191 186 180 180 173 169 169 168 165 152 152 140
nan nan nan nan nan nan nan nan nan nan nan nan nan nan nan nan 0 0 1 2 2 1 0 nan nan nan nan nan nan nan nan nan nan nan nan nan nan nan nan nan nan nan nan nan nan nan nan nan nan 0 39 65 75 75 79 88 88 95 105 108 108 119 124 137 137 157 173 183 188 188 191 184 185 185 179 174 173 173 171 169 169 166 165 161 161 155
nan nan nan nan nan nan nan nan nan nan nan nan nan nan nan 1 2 2 4 2 2 0 nan nan nan nan 0 nan nan nan nan nan nan nan nan nan nan nan nan nan nan 0 nan nan nan nan nan nan nan nan 34 60 74 74 84 86 86 97 104 107 107 114 124 130 130 139 150 154 167 167 166 175 176 176 179 178 177 177 176 182 182 182 178 180 180 168
nan nan nan nan nan nan nan nan nan nan 1 2 0 0 2 5 5 5 3 1 1 0 0 1 1 1 1 0 nan nan nan nan nan nan nan nan nan nan nan nan nan nan nan nan nan nan nan nan nan nan 8 57 75 75 82 86 86 87 92 95 95 95 105 112 112 124 138 151 154 154 160 162 169 169 178 173 174 174 179 181 181 184 180 182 182 175
nan nan nan nan nan nan nan nan 0 0 7 4 3 3 8 4 2 2 2 4 4 6 8 5 5 3 1 1 nan nan nan nan nan nan 0 0 0 0 nan nan nan nan nan nan nan nan nan nan nan nan 16 61 70 70 74 76 76 77 83 85 85 93 102 109 109 126 137 148 150 150 151 157 161 161 162 158 157 157 163 167 167 168 179 180 180 180
nan nan nan nan nan nan nan nan 3 3 17 6 11 11 6 1 3 3 5 6 6 6 5 3 3 2 0 nan nan nan nan nan nan nan nan nan nan nan nan nan nan nan nan nan nan nan nan nan nan nan 18 62 63 63 70 72 72 75 81 88 88 95 104 110 110 125 135 145 151 151 152 153 157 157 156 154 152 152 156 160 160 169 173 180 180 177
nan nan nan nan nan 1 5 12 11 11 4 2 2 2 2 2 3 3 4 4 4 3 3 2 2 1 0 0 nan nan nan nan nan nan nan nan nan nan nan nan nan nan nan nan nan nan nan nan nan nan 0 48 62 62 68 73 73 79 81 91 91 100 106 109 109 121 129 140 150 150 155 156 159 159 163 161 155 155 158 166 166 168 177 172 172 176
nan 0 3 14 14 34 34 22 10 10 2 3 3 3 5 15 19 19 8 2 2 3 2 2 2 1 nan 4 nan nan nan nan nan nan nan nan nan nan nan nan nan nan nan nan nan nan nan nan nan nan nan 10 50 50 63 72 72 76 84 91 91 99 106 112 112 124 127 135 141 141 142 151 147 147 149 150 145 145 150 153 153 162 161 160 160 159
23 41 58 79 79 113 99 80 71 71 46 14 5 5 4 10 8 8 2 4 4 3 4 nan nan nan nan nan nan nan nan nan nan nan nan nan nan nan nan nan nan nan nan nan nan nan nan nan nan nan nan nan 38 38 54 69 69 73 83 90 90 96 102 108 108 111 114 113 116 116 113 113 116 116 118 121 124 124 130 135 135 139 136 137 137 140
122 136 136 111 111 81 69 68 80 80 95 68 21 21 9 6 3 3 3 2 2 2 1 0 0 0 0 nan nan nan nan nan nan nan nan nan nan nan nan nan nan nan nan nan nan nan nan 0 0 nan nan nan 4 4 43 57 57 68 78 79 79 87 85 86 86 86 84 84 83 83 90 90 98 98 96 106 105 105 117 119 119 120 123 112 112 124
110 86 55 45 45 38 45 57 63 63 65 72 91 91 54 9 3 3 2 1 1 2 0 0 0 nan nan nan nan nan nan nan nan nan nan nan nan nan nan nan nan nan nan nan nan 1 20 5 5 nan nan nan nan nan 13 48 48 60 64 64 64 63 66 64 64 64 67 68 71 71 77 82 90 90 95 105 115 115 123 126 126 125 122 105 105 66
47 26 20 22 22 28 36 43 45 45 55 67 87 87 63 8 3 3 3 1 1 0 nan 0 0 nan nan nan nan nan nan nan nan nan nan nan nan nan nan nan nan nan nan nan nan 1 3 nan nan nan nan nan nan nan 1 32 32 39 46 47 47 50 52 54 54 55 57 66 70 70 75 83 92 92 101 111 117 117 118 129 129 127 109 84 84 56
nan 2 6 12 12 19 22 9 29 29 54 72 86 86 64 11 3 3 2 0 0 nan nan nan nan nan nan nan nan nan nan nan nan nan nan nan nan nan nan nan nan nan nan nan nan nan nan nan nan nan nan nan nan nan nan nan nan 1 11 33 33 35 39 45 45 50 55 60 67 67 72 79 87 87 94 96 101 101 103 104 104 89 57 37 37 30
nan nan nan nan nan nan nan nan 6 6 50 72 69 69 44 4 0 0 0 nan nan nan nan 0 0 0 nan nan nan nan nan nan nan nan nan nan nan nan nan nan nan nan nan nan nan nan nan nan nan nan nan nan nan nan nan nan nan nan nan nan nan 6 25 32 32 39 46 51 55 55 63 66 69 69 69 72 76 76 79 83 83 69 30 19 19 17
nan nan nan nan nan nan nan nan nan nan nan nan nan nan 7 6 1 1 nan nan nan nan nan nan nan nan nan nan nan nan nan nan 0 0 1 nan nan nan nan nan nan nan nan nan nan nan nan nan nan nan nan nan nan nan nan nan nan nan nan nan nan nan 3 13 13 18 17 30 33 33 36 36 39 39 44 48 52 52 57 61 61 58 26 8 8 12
nan nan nan 0 0 0 0 nan nan nan nan nan nan nan nan nan 3 3 nan nan nan nan nan nan nan nan nan nan nan nan nan nan 5 5 13 nan nan nan nan nan nan nan nan nan nan nan nan nan nan nan nan nan nan nan nan nan nan nan nan nan nan nan nan 0 0 nan 3 8 12 12 22 24 29 29 35 39 43 43 49 51 51 52 44 8 8 8
nan nan 0 1 1 0 0 nan nan nan nan nan nan nan nan nan nan nan nan nan nan nan nan nan nan nan nan nan nan nan nan nan 5 5 10 nan nan nan nan nan nan nan nan nan nan nan nan nan nan nan nan nan nan nan nan nan nan nan nan nan nan nan nan nan nan nan nan nan nan nan nan 2 17 17 20 28 31 31 37 43 43 49 54 30 30 14
nan 0 1 1 1 0 nan nan nan nan nan nan nan nan nan nan nan nan nan nan nan nan nan nan nan nan nan nan nan nan nan nan 1 1 13 nan nan nan nan nan nan nan nan nan nan nan nan nan nan 1 nan nan nan nan nan nan nan nan nan nan nan nan nan nan nan nan nan nan nan nan nan nan nan nan 3 14 23 23 32 40 40 46 53 58 58 41
nan 0 1 nan nan nan nan nan nan nan nan nan nan nan nan nan nan nan nan nan nan nan nan nan nan nan nan nan nan nan nan nan 0 0 12 nan nan nan nan nan nan nan nan nan nan nan nan nan nan 1 2 nan nan nan nan nan nan nan nan nan nan nan nan nan nan nan nan nan nan nan nan nan nan nan nan 16 23 23 28 34 34 41 46 54 54 56
1 0 0 nan nan nan nan nan nan nan nan nan nan nan nan nan nan nan nan nan nan nan nan nan nan nan 2 nan nan nan nan nan nan nan 1 nan nan nan nan nan nan nan nan nan nan nan nan nan nan nan nan nan nan nan nan nan nan nan nan nan nan nan nan nan nan nan nan nan nan nan nan nan nan nan 1 12 14 14 22 30 30 31 40 41 41 50
1 0 nan nan nan nan nan nan nan nan nan nan nan nan nan nan nan nan nan nan nan nan nan nan nan nan 0 7 nan nan nan nan nan nan nan nan nan nan nan nan nan nan nan nan nan nan nan nan nan nan nan nan nan nan nan nan nan nan nan nan nan nan nan nan nan nan nan nan nan nan 1 nan nan nan nan 0 nan nan 0 0 0 11 23 25 25 39
0 nan nan nan nan nan nan nan nan nan nan nan nan nan nan nan nan nan nan nan nan nan nan nan nan nan nan nan nan nan 2 nan nan nan nan nan nan nan nan nan nan nan nan nan nan nan nan nan nan nan nan nan nan nan nan nan nan nan nan nan nan nan nan nan nan nan nan nan nan nan nan nan nan nan nan nan nan nan nan nan nan 0 1 0 0 12
1 nan nan nan nan nan nan nan nan nan nan nan nan nan nan nan nan nan nan nan nan nan nan nan nan nan nan nan nan nan nan nan nan nan nan nan nan nan nan nan nan nan nan nan nan nan nan nan nan nan nan nan nan nan nan nan nan nan nan nan nan nan nan nan nan nan nan nan nan nan nan nan nan nan nan nan nan nan nan nan nan nan nan nan nan nan
0 nan nan nan nan nan nan nan nan nan nan nan nan nan nan nan nan nan nan nan nan nan nan nan nan nan nan nan nan nan nan nan nan nan nan nan nan nan nan nan nan nan nan nan nan nan nan nan nan nan nan nan nan nan nan nan nan nan 1 nan nan nan nan nan nan nan nan nan nan nan nan nan nan nan nan nan nan nan nan nan nan nan nan nan nan nan
4 nan nan nan nan nan nan nan nan nan nan nan nan nan nan nan nan nan nan nan nan nan nan nan nan nan nan nan nan nan nan nan nan nan nan nan nan nan nan nan nan nan nan nan nan 0 nan nan nan nan nan nan nan nan nan nan nan nan nan nan nan nan nan nan nan nan nan nan nan nan nan nan nan nan nan nan nan nan nan nan nan 0 1 nan nan nan
nan nan nan nan nan nan nan nan nan nan nan nan nan nan nan nan nan nan nan nan nan nan nan nan nan nan nan nan nan nan nan nan nan nan nan nan nan nan nan nan nan nan 0 nan nan nan nan nan nan nan nan nan nan nan nan nan nan nan nan nan nan nan nan nan nan nan nan nan nan nan nan nan nan nan nan nan nan nan nan nan nan 6 5 nan nan nan
nan nan nan nan nan nan nan nan nan nan nan nan nan nan nan nan nan nan nan nan nan nan nan nan nan nan nan nan nan nan nan nan nan nan nan nan nan nan nan nan nan nan nan nan nan nan nan nan nan nan nan nan nan nan nan nan nan nan nan nan nan nan nan nan nan nan nan nan nan nan nan nan nan nan nan nan nan nan nan nan nan nan 0 nan nan nan
nan nan nan nan nan nan nan nan nan nan nan nan nan nan nan nan nan nan nan nan nan nan nan nan nan nan nan nan nan nan nan nan nan nan nan nan 6 6 nan nan nan nan nan nan nan nan nan nan nan nan nan nan nan nan nan nan nan nan nan nan nan nan nan nan nan nan nan nan nan nan nan nan nan nan nan nan nan nan nan nan nan nan nan nan nan nan
nan nan nan nan nan nan nan nan nan nan nan nan nan nan nan nan nan nan nan nan nan nan nan nan nan nan nan nan nan nan nan nan nan nan nan nan nan nan nan nan nan nan nan nan nan nan nan nan nan nan nan nan nan nan nan nan nan nan nan nan nan nan nan nan nan nan nan nan nan nan nan nan nan nan nan nan nan nan nan nan nan nan nan nan nan nan
nan nan nan nan nan nan nan nan nan nan nan nan nan nan nan nan nan nan nan nan nan nan nan nan nan nan nan nan nan nan nan nan nan nan nan nan nan nan nan nan nan nan nan nan nan nan nan nan nan nan nan nan nan nan nan nan nan nan nan nan nan nan nan nan nan nan nan nan nan nan nan nan nan nan nan nan nan nan nan nan nan nan nan nan nan nan
nan nan nan nan nan nan nan nan nan nan nan nan nan nan nan nan nan nan nan nan nan nan nan nan nan nan nan nan nan nan nan nan nan nan nan nan nan nan nan nan nan nan nan nan nan nan nan nan nan nan nan nan nan nan nan nan nan nan nan nan nan nan nan nan nan nan nan nan nan nan nan nan nan nan nan nan nan nan nan nan nan nan nan nan nan nan
nan nan nan nan nan nan nan nan nan nan nan nan nan nan nan nan 8 8 nan nan nan nan nan nan nan nan nan nan nan nan nan nan nan nan nan nan nan nan nan nan nan nan nan nan nan nan nan nan nan nan nan nan nan nan nan nan nan nan nan nan nan nan nan nan nan nan nan nan nan nan nan nan nan nan nan nan nan nan nan nan nan nan nan nan nan nan
nan nan nan nan nan nan nan nan nan nan nan nan nan nan nan nan nan nan nan nan nan nan nan nan nan nan nan nan nan nan nan nan nan nan nan nan nan nan nan nan nan nan nan nan nan nan nan nan nan nan nan nan nan nan nan nan nan nan nan nan nan nan nan nan nan nan nan nan nan nan nan nan nan nan nan nan nan nan nan nan nan nan nan nan nan nan
nan nan nan nan nan nan nan nan nan nan nan nan nan nan nan nan nan nan nan nan nan nan nan nan nan nan nan nan nan nan nan nan nan nan nan nan nan nan nan nan nan nan nan nan nan nan nan nan nan nan nan nan nan nan nan nan nan nan nan nan nan nan nan nan nan nan nan nan nan nan nan nan nan nan nan nan nan nan nan nan nan nan nan nan nan nan